EW6553 Weather Reports


Display with metric or nautical units.
time (UTC)temp
F
wind
direction
speed
MPH
gust
MPH
rain 1hr
in
rain 24hr
in
rain mn
in
humidity
%
barometer
mb
20181116015145 54 235 0.0 4.0 0.00 0.00 0.00 58 1021.3
20181116014645 54 228 0.0 4.0 0.00 0.00 0.00 58 1021.4
20181116014145 54 219 0.0 2.0 0.00 0.00 0.00 58 1021.3
20181116013645 54 116 0.0 3.0 0.00 0.00 0.00 57 1021.2
20181116013145 54 210 1.0 3.0 0.00 0.00 0.00 57 1021.2
20181116012645 54 248 0.0 3.0 0.00 0.00 0.00 56 1021.2
20181116012145 55 123 0.0 2.0 0.00 0.00 0.00 56 1021.1
20181116011644 55 214 0.0 2.0 0.00 0.00 0.00 56 1021.2
20181116011146 55 172 0.0 3.0 0.00 0.00 0.00 56 1021.1
20181116010644 55 127 1.0 3.0 0.00 0.00 0.00 55 1021.1
20181116010144 55 200 0.0 4.0 0.00 0.00 0.00 55 1021.0
20181116005645 56 144 0.0 4.0 0.00 0.00 0.00 55 1021.1
20181116005144 56 193 0.0 4.0 0.00 0.00 0.00 54 1021.0
20181116004645 56 135 0.0 4.0 0.00 0.00 0.00 53 1021.0
20181116004143 56 221 0.0 3.0 0.00 0.00 0.00 53 1020.9
20181116003644 56 133 0.0 2.0 0.00 0.00 0.00 53 1020.9
20181116003143 57 214 0.0 4.0 0.00 0.00 0.00 52 1020.9
20181116002645 57 185 0.0 4.0 0.00 0.00 0.00 52 1020.9
20181116002143 57 228 0.0 2.0 0.00 0.00 0.00 51 1020.8
20181116001644 58 221 1.0 2.0 0.00 0.00 0.00 51 1020.7
20181116001143 58 206 0.0 2.0 0.00 0.00 0.00 50 1020.7
20181116000643 58 140 0.0 3.0 0.00 0.00 0.00 50 1020.6
20181116000143 58 92 0.0 3.0 0.00 0.00 0.00 49 1020.6
20181115235642 59 204 0.0 4.0 0.00 0.00 0.00 48 1020.7
20181115235144 59 233 1.0 4.0 0.00 0.00 0.00 48 1020.6
20181115234642 60 183 1.0 5.0 0.00 0.00 0.00 47 1020.6
20181115234142 60 124 0.0 5.0 0.00 0.00 0.00 46 1020.5
20181115233642 61 113 2.0 5.0 0.00 0.00 0.00 45 1020.6
20181115233142 61 207 1.0 5.0 0.00 0.00 0.00 44 1020.4
20181115232642 62 134 0.0 3.0 0.00 0.00 0.00 43 1020.4
20181115232142 62 165 1.0 4.0 0.00 0.00 0.00 42 1020.3
20181115231643 63 235 1.0 4.0 0.00 0.00 0.00 41 1020.2
20181115231141 64 221 0.0 3.0 0.00 0.00 0.00 40 1020.3
20181115230642 64 230 0.0 5.0 0.00 0.00 0.00 39 1020.2
20181115230141 65 79 1.0 6.0 0.00 0.00 0.00 38 1020.2
20181115225641 65 106 2.0 6.0 0.00 0.00 0.00 38 1020.1
20181115225141 66 231 0.0 4.0 0.00 0.00 0.00 38 1020.2
20181115224641 66 247 0.0 4.0 0.00 0.00 0.00 38 1020.1
20181115224141 66 226 0.0 6.0 0.00 0.00 0.00 37 1020.1
20181115223641 67 131 2.0 6.0 0.00 0.00 0.00 36 1020.2
20181115223141 67 93 0.0 5.0 0.00 0.00 0.00 36 1020.2
20181115222641 67 97 1.0 5.0 0.00 0.00 0.00 35 1020.1
20181115222141 68 224 2.0 5.0 0.00 0.00 0.00 35 1020.2
20181115221640 68 238 2.0 7.0 0.00 0.00 0.00 35 1020.1
20181115221140 68 217 2.0 7.0 0.00 0.00 0.00 35 1020.2
20181115220640 68 223 2.0 6.0 0.00 0.00 0.00 34 1020.2
20181115220140 68 233 0.0 6.0 0.00 0.00 0.00 35 1020.1
20181115215641 67 186 2.0 7.0 0.00 0.00 0.00 35 1020.2
20181115215140 68 121 2.0 7.0 0.00 0.00 0.00 34 1020.2
20181115214640 67 120 2.0 6.0 0.00 0.00 0.00 34 1020.3
20181115214139 67 235 1.0 7.0 0.00 0.00 0.00 34 1020.3
20181115213641 67 124 3.0 7.0 0.00 0.00 0.00 36 1020.3
20181115213140 68 224 4.0 7.0 0.00 0.00 0.00 34 1020.3
20181115212640 67 224 1.0 10.0 0.00 0.00 0.00 34 1020.4
20181115212139 67 147 5.0 10.0 0.00 0.00 0.00 33 1020.4
20181115211639 67 231 2.0 9.0 0.00 0.00 0.00 33 1020.4
20181115211139 67 238 4.0 10.0 0.00 0.00 0.00 33 1020.3
20181115210639 67 276 4.0 10.0 0.00 0.00 0.00 33 1020.5
20181115210140 67 241 3.0 10.0 0.00 0.00 0.00 34 1020.6
20181115205639 67 276 5.0 10.0 0.00 0.00 0.00 35 1020.6
20181115205139 67 213 6.0 10.0 0.00 0.00 0.00 33 1020.6
20181115204638 67 224 5.0 10.0 0.00 0.00 0.00 33 1020.6
20181115204139 68 221 5.0 9.0 0.00 0.00 0.00 32 1020.6
20181115203638 67 219 2.0 9.0 0.00 0.00 0.00 32 1020.7
20181115203138 67 235 4.0 9.0 0.00 0.00 0.00 32 1020.7
20181115202638 67 245 3.0 9.0 0.00 0.00 0.00 33 1020.7
20181115202138 67 238 4.0 10.0 0.00 0.00 0.00 33 1020.8
20181115201639 66 269 4.0 10.0 0.00 0.00 0.00 34 1020.8
20181115201137 67 231 4.0 10.0 0.00 0.00 0.00 33 1020.9
20181115200637 66 216 3.0 10.0 0.00 0.00 0.00 32 1020.8
20181115200137 66 234 4.0 9.0 0.00 0.00 0.00 33 1020.9
20181115195637 66 219 3.0 9.0 0.00 0.00 0.00 34 1020.9
20181115195137 66 254 4.0 9.0 0.00 0.00 0.00 33 1020.9
20181115194637 66 272 3.0 10.0 0.00 0.00 0.00 34 1020.9
20181115194137 66 259 5.0 10.0 0.00 0.00 0.00 35 1021.0
20181115193637 65 238 4.0 10.0 0.00 0.00 0.00 35 1021.0
20181115193138 65 203 4.0 12.0 0.00 0.00 0.00 34 1021.2
20181115192637 65 152 6.0 12.0 0.00 0.00 0.00 35 1021.3
20181115192136 65 226 4.0 9.0 0.00 0.00 0.00 33 1021.4
20181115191636 65 233 3.0 12.0 0.00 0.00 0.00 37 1021.4
20181115191136 65 219 4.0 12.0 0.00 0.00 0.00 35 1021.6
20181115190636 65 209 1.0 9.0 0.00 0.00 0.00 37 1021.6
20181115190136 65 261 4.0 9.0 0.00 0.00 0.00 36 1021.8
20181115185636 64 125 2.0 7.0 0.00 0.00 0.00 36 1021.9
20181115185136 64 251 4.0 7.0 0.00 0.00 0.00 37 1022.1
20181115184637 63 231 1.0 7.0 0.00 0.00 0.00 37 1022.1
20181115184136 63 274 3.0 7.0 0.00 0.00 0.00 37 1022.3
20181115183635 63 47 2.0 7.0 0.00 0.00 0.00 38 1022.4
20181115183135 62 271 2.0 5.0 0.00 0.00 0.00 40 1022.4
20181115182635 62 231 0.0 11.0 0.00 0.00 0.00 40 1022.6
20181115182135 61 224 5.0 11.0 0.00 0.00 0.00 40 1022.8
20181115181634 61 257 3.0 9.0 0.00 0.00 0.00 40 1022.9
20181115181135 60 186 2.0 7.0 0.00 0.00 0.00 41 1023.0
20181115180635 60 245 3.0 7.0 0.00 0.00 0.00 41 1023.1
20181115180136 60 41 2.0 6.0 0.00 0.00 0.00 41 1023.3
20181115175635 60 79 2.0 6.0 0.00 0.00 0.00 44 1023.4
20181115175134 60 172 2.0 6.0 0.00 0.00 0.00 42 1023.6
20181115174634 59 216 2.0 6.0 0.00 0.00 0.00 43 1023.7
20181115174134 59 78 1.0 4.0 0.00 0.00 0.00 44 1023.8
20181115173634 58 248 1.0 4.0 0.00 0.00 0.00 44 1023.8
20181115173133 58 248 1.0 4.0 0.00 0.00 0.00 43 1023.9
20181115172635 58 250 0.0 4.0 0.00 0.00 0.00 44 1024.1
20181115172134 57 73 1.0 4.0 0.00 0.00 0.00 46 1024.1
20181115171635 57 271 1.0 4.0 0.00 0.00 0.00 46 1024.2
20181115171134 56 235 1.0 3.0 0.00 0.00 0.00 46 1024.2
20181115170633 56 241 0.0 4.0 0.00 0.00 0.00 47 1024.3
20181115170133 55 212 0.0 4.0 0.00 0.00 0.00 47 1024.4
20181115165633 55 96 1.0 7.0 0.00 0.00 0.00 48 1024.6
20181115165133 54 55 2.0 7.0 0.00 0.00 0.00 48 1024.6
20181115164633 54 117 0.0 5.0 0.00 0.00 0.00 49 1024.7
20181115164134 53 109 0.0 2.0 0.00 0.00 0.00 50 1024.8
20181115163633 53 214 0.0 2.0 0.00 0.00 0.00 50 1024.8
20181115163133 52 52 0.0 2.0 0.00 0.00 0.00 52 1024.9
20181115162633 51 76 0.0 3.0 0.00 0.00 0.00 51 1025.0
20181115162132 51 240 0.0 3.0 0.00 0.00 0.00 52 1025.1
20181115161633 50 111 0.0 2.0 0.00 0.00 0.00 56 1025.3
20181115161132 50 221 0.0 3.0 0.00 0.00 0.00 56 1025.3
20181115160632 50 259 1.0 3.0 0.00 0.00 0.00 54 1025.4
20181115160131 49 217 0.0 2.0 0.00 0.00 0.00 57 1025.5
20181115155633 49 92 0.0 4.0 0.00 0.00 0.00 58 1025.5
20181115155132 48 220 2.0 4.0 0.00 0.00 0.00 57 1025.6
20181115154633 47 220 0.0 2.0 0.00 0.00 0.00 59 1025.7
20181115154131 47 278 0.0 1.0 0.00 0.00 0.00 61 1025.7
20181115153631 46 250 0.0 1.0 0.00 0.00 0.00 61 1025.7
20181115153132 45 224 0.0 3.0 0.00 0.00 0.00 63 1025.7
20181115152631 44 230 0.0 3.0 0.00 0.00 0.00 65 1025.8
20181115152131 44 224 0.0 2.0 0.00 0.00 0.00 66 1025.7
20181115151631 43 131 0.0 3.0 0.00 0.00 0.00 65 1025.6
20181115151132 42 223 0.0 3.0 0.00 0.00 0.00 67 1025.7
20181115150631 42 230 1.0 3.0 0.00 0.00 0.00 70 1025.6
20181115150131 41 238 0.0 4.0 0.00 0.00 0.00 72 1025.7
20181115145630 41 233 1.0 4.0 0.00 0.00 0.00 72 1025.7
20181115145131 40 241 0.0 2.0 0.00 0.00 0.00 74 1025.7
20181115144630 39 226 0.0 2.0 0.00 0.00 0.00 75 1025.7
20181115144131 39 230 0.0 2.0 0.00 0.00 0.00 77 1025.8
20181115143631 38 226 0.0 1.0 0.00 0.00 0.00 83 1025.7
20181115143130 37 234 0.0 1.0 0.00 0.00 0.00 85 1025.7
20181115142631 36 217 0.0 1.0 0.00 0.00 0.00 89 1025.7
20181115142130 35 182 0.0 2.0 0.00 0.00 0.00 93 1025.7
20181115141631 34 230 0.0 2.0 0.00 0.00 0.00 97 1025.6
20181115141129 33 220 0.0 1.0 0.00 0.00 0.00 97 1025.5
20181115140630 33 155 0.0 1.0 0.00 0.00 0.00 97 1025.6
20181115140129 31 344 0.0 0.0 0.00 0.00 0.00 97 1025.6
20181115135629 29 344 0.0 0.0 0.00 0.00 0.00 97 1025.7
20181115135129 28 344 0.0 0.0 0.00 0.00 0.00 97 1025.6
20181115134629 28 344 0.0 0.0 0.00 0.00 0.00 96 1025.7
20181115134130 28 344 0.0 0.0 0.00 0.00 0.00 96 1025.8
20181115133629 27 344 0.0 0.0 0.00 0.00 0.00 97 1025.7
20181115133130 27 344 0.0 0.0 0.00 0.00 0.00 97 1025.7
20181115132628 27 344 0.0 0.0 0.00 0.00 0.00 96 1025.6
20181115132129 26 344 0.0 0.0 0.00 0.00 0.00 96 1025.6
20181115131628 26 344 0.0 0.0 0.00 0.00 0.00 96 1025.6
20181115131128 26 344 0.0 0.0 0.00 0.00 0.00 97 1025.7
20181115130628 26 344 0.0 0.0 0.00 0.00 0.00 96 1025.6
20181115130130 26 344 0.0 0.0 0.00 0.00 0.00 96 1025.6
20181115125629 26 344 0.0 0.0 0.00 0.00 0.00 96 1025.5
20181115125128 26 344 0.0 0.0 0.00 0.00 0.00 96 1025.5
20181115124628 26 344 0.0 0.0 0.00 0.00 0.00 96 1025.5
20181115124127 26 344 0.0 0.0 0.00 0.00 0.00 96 1025.5
20181115123628 26 344 0.0 0.0 0.00 0.00 0.00 96 1025.4
20181115123128 26 344 0.0 0.0 0.00 0.00 0.00 96 1025.5
20181115122627 26 344 0.0 0.0 0.00 0.00 0.00 96 1025.5
20181115122128 26 344 0.0 0.0 0.00 0.00 0.00 96 1025.5
20181115121627 26 344 0.0 0.0 0.00 0.00 0.00 96 1025.5
20181115121128 26 344 0.0 0.0 0.00 0.00 0.00 96 1025.5
20181115120627 26 344 0.0 0.0 0.00 0.00 0.00 96 1025.6
20181115120128 26 344 0.0 0.0 0.00 0.00 0.00 96 1025.5
20181115115626 26 344 0.0 0.0 0.00 0.00 0.00 96 1025.5
20181115115127 26 344 0.0 0.0 0.00 0.00 0.00 96 1025.5
20181115114627 26 344 0.0 0.0 0.00 0.00 0.00 96 1025.6
20181115114126 26 344 0.0 0.0 0.00 0.00 0.00 96 1025.7
20181115113625 27 344 0.0 0.0 0.00 0.00 0.00 96 1025.6
20181115113125 27 344 0.0 0.0 0.00 0.00 0.00 96 1025.5
20181115112627 27 344 0.0 0.0 0.00 0.00 0.00 96 1025.6
20181115112125 28 344 0.0 0.0 0.00 0.00 0.00 96 1025.6
20181115111627 28 344 0.0 0.0 0.00 0.00 0.00 96 1025.5
20181115111126 28 344 0.0 0.0 0.00 0.00 0.00 96 1025.5
20181115110627 28 344 0.0 0.0 0.00 0.00 0.00 96 1025.5
20181115110125 27 344 0.0 0.0 0.00 0.00 0.00 96 1025.6
20181115105625 27 344 0.0 0.0 0.00 0.00 0.00 96 1025.6
20181115105126 27 344 0.0 0.0 0.00 0.00 0.00 96 1025.7
20181115104624 27 344 0.0 0.0 0.00 0.00 0.00 96 1025.7
20181115104126 27 344 0.0 0.0 0.00 0.00 0.00 96 1025.6
20181115103624 27 344 0.0 0.0 0.00 0.00 0.00 96 1025.7
20181115103125 27 344 0.0 0.0 0.00 0.00 0.00 96 1025.7
20181115102624 26 344 0.0 0.0 0.00 0.00 0.00 96 1025.8
20181115102124 26 344 0.0 0.0 0.00 0.00 0.00 96 1025.9
20181115101625 26 344 0.0 0.0 0.00 0.00 0.00 96 1025.9
20181115101125 27 344 0.0 0.0 0.00 0.00 0.00 96 1025.9
20181115100625 27 344 0.0 0.0 0.00 0.00 0.00 96 1025.9
20181115100125 27 344 0.0 0.0 0.00 0.00 0.00 96 1025.9
20181115095625 27 344 0.0 0.0 0.00 0.00 0.00 96 1025.9
20181115095124 27 344 0.0 0.0 0.00 0.00 0.00 96 1025.9
20181115094625 27 344 0.0 0.0 0.00 0.00 0.00 96 1025.9
20181115094124 27 344 0.0 0.0 0.00 0.00 0.00 96 1026.1
20181115093623 27 344 0.0 0.0 0.00 0.00 0.00 96 1026.1
20181115093123 27 344 0.0 0.0 0.00 0.00 0.00 96 1026.2
20181115092624 27 344 0.0 0.0 0.00 0.00 0.00 96 1026.2
20181115092123 27 344 0.0 0.0 0.00 0.00 0.00 96 1026.2
20181115091623 27 344 0.0 0.0 0.00 0.00 0.00 95 1026.3
20181115091124 27 344 0.0 0.0 0.00 0.00 0.00 95 1026.4
20181115090622 27 344 0.0 0.0 0.00 0.00 0.00 95 1026.4
20181115090124 28 344 0.0 0.0 0.00 0.00 0.00 95 1026.4
20181115085622 28 344 0.0 0.0 0.00 0.00 0.00 95 1026.4
20181115085122 28 344 0.0 0.0 0.00 0.00 0.00 96 1026.4
20181115084622 28 344 0.0 0.0 0.00 0.00 0.00 96 1026.6
20181115084122 28 344 0.0 0.0 0.00 0.00 0.00 95 1026.6
20181115083623 28 344 0.0 0.0 0.00 0.00 0.00 95 1026.5
20181115083122 28 344 0.0 0.0 0.00 0.00 0.00 95 1026.5
20181115082623 28 344 0.0 0.0 0.00 0.00 0.00 95 1026.5
20181115082122 28 344 0.0 0.0 0.00 0.00 0.00 96 1026.5
20181115081622 28 344 0.0 0.0 0.00 0.00 0.00 96 1026.6
20181115081122 28 344 0.0 0.0 0.00 0.00 0.00 95 1026.7
20181115080622 28 344 0.0 0.0 0.00 0.00 0.00 96 1026.8
20181115080121 28 344 0.0 0.0 0.00 0.00 0.00 96 1026.9
20181115075620 27 344 0.0 0.0 0.00 0.00 0.00 96 1026.9
20181115075122 27 344 0.0 0.0 0.00 0.00 0.00 95 1026.9
20181115074621 27 344 0.0 0.0 0.00 0.00 0.00 95 1027.0
20181115074122 27 344 0.0 0.0 0.00 0.00 0.00 95 1027.1
20181115073621 27 344 0.0 0.0 0.00 0.00 0.00 95 1027.1
20181115073122 27 344 0.0 0.0 0.00 0.00 0.00 94 1027.2
20181115072620 27 344 0.0 0.0 0.00 0.00 0.00 95 1027.2
20181115072120 27 344 0.0 0.0 0.00 0.00 0.00 95 1027.2
20181115071620 28 344 0.0 0.0 0.00 0.00 0.00 95 1027.3
20181115071120 28 344 0.0 0.0 0.00 0.00 0.00 95 1027.4
20181115070620 28 344 0.0 0.0 0.00 0.00 0.00 94 1027.4
20181115070121 28 344 0.0 0.0 0.00 0.00 0.00 95 1027.3
20181115065620 28 344 0.0 0.0 0.00 0.00 0.00 95 1027.2
20181115065120 28 344 0.0 0.0 0.00 0.00 0.00 95 1027.4
20181115064621 28 344 0.0 0.0 0.00 0.00 0.00 95 1027.5
20181115064120 28 344 0.0 0.0 0.00 0.00 0.00 95 1027.5
20181115063619 27 344 0.0 0.0 0.00 0.00 0.00 95 1027.5
20181115063119 27 344 0.0 0.0 0.00 0.00 0.00 95 1027.6
20181115062619 28 344 0.0 0.0 0.00 0.00 0.00 95 1027.5
20181115062120 27 344 0.0 0.0 0.00 0.00 0.00 94 1027.6
20181115061619 28 344 0.0 0.0 0.00 0.00 0.00 94 1027.6
20181115061120 28 344 0.0 0.0 0.00 0.00 0.00 95 1027.6
20181115060619 28 344 0.0 0.0 0.00 0.00 0.00 95 1027.7
20181115060119 27 344 0.0 0.0 0.00 0.00 0.00 94 1027.7
20181115055618 27 344 0.0 0.0 0.00 0.00 0.00 94 1027.8
20181115055118 28 344 0.0 0.0 0.00 0.00 0.00 94 1027.9
20181115054618 28 344 0.0 0.0 0.00 0.00 0.00 94 1027.9
20181115054118 27 344 0.0 0.0 0.00 0.00 0.00 94 1027.9
20181115053619 27 344 0.0 0.0 0.00 0.00 0.00 93 1028.0
20181115053118 28 344 0.0 0.0 0.00 0.00 0.00 93 1027.9
20181115052619 28 344 0.0 0.0 0.00 0.00 0.00 93 1028.0
20181115052117 28 344 0.0 0.0 0.00 0.00 0.00 93 1028.0
20181115051619 28 344 0.0 0.0 0.00 0.00 0.00 93 1028.0
20181115051118 28 344 0.0 0.0 0.00 0.00 0.00 93 1028.0
20181115050618 28 344 0.0 0.0 0.00 0.00 0.00 94 1028.0
20181115050117 28 344 0.0 0.0 0.00 0.00 0.00 94 1028.1
20181115045617 28 344 0.0 0.0 0.00 0.00 0.00 93 1028.0
20181115045118 28 344 0.0 0.0 0.00 0.00 0.00 92 1028.0
20181115044617 28 344 0.0 0.0 0.00 0.00 0.00 92 1028.1
20181115044118 29 344 0.0 0.0 0.00 0.00 0.00 93 1028.1
20181115043617 29 344 0.0 0.0 0.00 0.00 0.00 93 1028.2
20181115043117 29 344 0.0 0.0 0.00 0.00 0.00 92 1028.3
20181115042617 29 344 0.0 0.0 0.00 0.00 0.00 92 1028.2
20181115042117 29 344 0.0 0.0 0.00 0.00 0.00 93 1028.4
20181115041616 29 344 0.0 0.0 0.00 0.00 0.00 93 1028.5
20181115041116 29 344 0.0 0.0 0.00 0.00 0.00 93 1028.3
20181115040617 29 344 0.0 0.0 0.00 0.00 0.00 91 1028.4
20181115040116 29 344 0.0 0.0 0.00 0.00 0.00 92 1028.4
20181115035618 29 344 0.0 0.0 0.00 0.00 0.00 91 1028.3
20181115035116 29 344 0.0 0.0 0.00 0.00 0.00 92 1028.3
20181115034617 29 344 0.0 0.0 0.00 0.00 0.00 90 1028.4
20181115034115 29 344 0.0 0.0 0.00 0.00 0.00 91 1028.3
20181115033616 30 344 0.0 0.0 0.00 0.00 0.00 91 1028.4
20181115033116 30 344 0.0 0.0 0.00 0.00 0.00 91 1028.3
20181115032615 29 344 0.0 0.0 0.00 0.00 0.00 89 1028.3
20181115032116 30 344 0.0 0.0 0.00 0.00 0.00 89 1028.3
20181115031614 30 344 0.0 0.0 0.00 0.00 0.00 89 1028.3
20181115031116 31 344 0.0 0.0 0.00 0.00 0.00 88 1028.3
20181115030615 31 344 0.0 0.0 0.00 0.00 0.00 89 1028.4
20181115030116 31 344 0.0 0.0 0.00 0.00 0.00 89 1028.4
20181115025614 31 344 0.0 0.0 0.00 0.00 0.00 89 1028.3
20181115025114 31 344 0.0 0.0 0.00 0.00 0.00 90 1028.4
20181115024615 31 344 0.0 0.0 0.00 0.00 0.00 89 1028.4
20181115024114 30 344 0.0 0.0 0.00 0.00 0.00 86 1028.4
20181115023615 31 344 0.0 0.0 0.00 0.00 0.00 86 1028.5
20181115023114 31 344 0.0 0.0 0.00 0.00 0.00 86 1028.4
20181115022615 31 344 0.0 0.0 0.00 0.00 0.00 86 1028.4
20181115022114 31 344 0.0 0.0 0.00 0.00 0.00 85 1028.4
20181115021614 32 344 0.0 0.0 0.00 0.00 0.00 85 1028.4
20181115021114 32 344 0.0 0.0 0.00 0.00 0.00 85 1028.5
20181115020613 32 344 0.0 0.0 0.00 0.00 0.00 82 1028.5
20181115020114 32 344 0.0 1.0 0.00 0.00 0.00 82 1028.5
20181115015613 33 344 0.0 1.0 0.00 0.00 0.00 82 1028.5